Weather History for Olympia, WA

Change the Weather History Date:

Wednesday, March 26, 2014

  Actual Average Record
Temperature  
Mean Temperature 43 °F 46 °F  
Max Temperature 50 °F 56 °F 76 °F (1969)
Min Temperature 35 °F 36 °F 24 °F (1975)
Degree Days  
Heating Degree Days 22 19  
Month to date heating degree days 486 541  
Since 1 July heating degree days 4269 4263  
Cooling Degree Days 0 0  
Month to date cooling degree days 0 0  
Year to date cooling degree days 0 0  
Moisture  
Dew Point 40 °F    
Average Humidity 93    
Maximum Humidity 100    
Minimum Humidity 86    
Precipitation  
Precipitation 0.22 in 0.16 in 2.01 in (2005)
Month to date precipitation 7.79 4.52  
Year to date precipitation 20.83 17.63  
Sea Level Pressure  
Sea Level Pressure 29.58 in    
Wind  
Wind Speed 5 mph (South)    
Max Wind Speed 17 mph    
Max Gust Speed 22 mph    
Visibility 7 miles    
Events Rain    
T = Trace of Precipitation, MM = Missing Value Source: NWS Daily Summary

Daily Weather History Graph

Daily Weather History Graph

Search for Another Location

Airport:

Trip Planner

Search our weather history database for the weather conditions in past years. The results will help you decide how hot, cold, wet, or windy it might be!

Date:

Astronomy

Mar. 26, 2014 Rise Set
Actual Time 7:02 AM PDT 7:32 PM PDT
Civil Twilight 6:31 AM PDT 8:03 PM PDT
Nautical Twilight 5:55 AM PDT 8:39 PM PDT
Astronomical Twilight 5:18 AM PDT 9:17 PM PDT
Moon 4:31 AM PDT (3/26) 3:03 PM PDT (3/26)
Length of Visible Light 13h 31m
Length of Day
12h 30m
Waning Crescent, 21% of the Moon is Illuminated
Mar 26
Waning Crescent
Mar 30
New
Apr 7
First Quarter
Apr 15
Full
Apr 22
Last Quarter

Hourly Weather History & Observations

Time (PDT) Temp. Windchill Dew Point Humidity Pressure Visibility Wind Dir Wind Speed Gust Speed Precip Events Conditions
12:54 AM 42.1 °F 37.7 °F 39.0 °F 89% 29.64 in 10.0 mi South 6.9 mph - N/A   Clear
1:54 AM 42.1 °F 40.2 °F 39.0 °F 89% 29.64 in 10.0 mi West 3.5 mph - N/A   Clear
2:54 AM 37.9 °F - 37.0 °F 97% 29.63 in 10.0 mi Calm Calm - N/A   Clear
3:54 AM 37.9 °F - 37.9 °F 100% 29.62 in 9.0 mi Calm Calm - 0.00 in   Mostly Cloudy
4:54 AM 39.0 °F - 37.9 °F 96% 29.61 in 10.0 mi Calm Calm - N/A   Partly Cloudy
5:09 AM 37.0 °F - 36.0 °F 96% 29.60 in 2.0 mi Calm Calm - N/A   Partly Cloudy
5:17 AM 37.9 °F - 37.0 °F 97% 29.60 in 7.0 mi Calm Calm - N/A   Partly Cloudy
5:49 AM 37.4 °F - 37.4 °F 100% 29.59 in 2.5 mi Calm Calm - N/A   Clear
5:54 AM 37.0 °F - 37.0 °F 100% 29.59 in 1.8 mi Calm Calm - N/A   Clear
6:04 AM 36.0 °F - 36.0 °F 100% 29.58 in 3.0 mi Calm Calm - N/A   Clear
6:26 AM 36.0 °F 33.3 °F 36.0 °F 100% 29.58 in 1.5 mi SE 3.5 mph - N/A   Mostly Cloudy
6:33 AM 36.0 °F - 36.0 °F 100% 29.58 in 0.8 mi Calm Calm - N/A   Mostly Cloudy
6:42 AM 36.0 °F - 36.0 °F 100% 29.58 in 1.0 mi Calm Calm - N/A   Overcast
6:50 AM 37.4 °F - 35.6 °F 93% 29.58 in 2.0 mi Calm Calm - N/A   Overcast
6:54 AM 37.0 °F - 36.0 °F 96% 29.58 in 5.0 mi Calm Calm - N/A   Overcast
7:54 AM 39.9 °F - 39.0 °F 97% 29.59 in 5.0 mi Calm Calm - 0.03 in Rain Light Rain
8:54 AM 43.0 °F - 42.1 °F 97% 29.57 in 7.0 mi Calm Calm - 0.04 in Rain Light Rain
9:54 AM 46.0 °F 41.9 °F 42.1 °F 86% 29.57 in 10.0 mi South 8.1 mph - 0.01 in Rain Light Rain
10:54 AM 48.0 °F - 42.1 °F 80% 29.57 in 10.0 mi South 9.2 mph - 0.00 in   Overcast
10:58 AM 48.0 °F - 42.1 °F 80% 29.57 in 10.0 mi South 10.4 mph - N/A   Overcast
11:54 AM 48.0 °F - 42.1 °F 80% 29.57 in 10.0 mi South 13.8 mph 20.7 mph 0.00 in Rain Light Rain
12:54 PM 48.0 °F - 43.0 °F 83% 29.56 in 10.0 mi South 9.2 mph - 0.00 in Rain Light Rain
1:54 PM 48.9 °F - 44.1 °F 83% 29.54 in 10.0 mi South 8.1 mph - 0.00 in Rain Light Rain
2:54 PM 48.9 °F - 44.1 °F 83% 29.53 in 10.0 mi South 13.8 mph 21.9 mph 0.00 in Rain Light Rain
3:54 PM 48.0 °F - 44.1 °F 86% 29.53 in 10.0 mi South 8.1 mph - 0.01 in Rain Light Rain
4:54 PM 48.9 °F - 44.1 °F 83% 29.53 in 10.0 mi South 9.2 mph - 0.01 in   Overcast
5:54 PM 48.0 °F - 45.0 °F 89% 29.53 in 3.0 mi SSW 5.8 mph - 0.05 in Rain Rain
6:54 PM 46.9 °F - 44.1 °F 90% 29.53 in 3.0 mi SSW 5.8 mph - 0.05 in Rain Light Rain
7:54 PM 45.0 °F 43.5 °F 43.0 °F 93% 29.54 in 10.0 mi South 3.5 mph - 0.00 in   Partly Cloudy
8:54 PM 44.1 °F 41.5 °F 42.1 °F 93% 29.56 in 10.0 mi South 4.6 mph - N/A   Overcast
9:54 PM 44.1 °F - 43.0 °F 96% 29.57 in 10.0 mi Calm Calm - 0.00 in Rain Light Rain
10:54 PM 45.0 °F - 43.0 °F 93% 29.57 in 10.0 mi Calm Calm - 0.01 in   Overcast
11:54 PM 44.1 °F 39.5 °F 42.1 °F 93% 29.58 in 10.0 mi South 8.1 mph - 0.01 in Rain Light Rain